This is the latest recevied weather packets stored in our database for station/object HF3P-11. If no packets are shown the sender has not sent any weather packets the latest 10 day(s).
| Time | Temp. | Humidity | Pressure | Rain* | Wind** | Luminosity | Snow |
|---|---|---|---|---|---|---|---|
| 1787740197 | 21.11° C | 69% | 1015.7 hPa | 0 mm | - | - | - |
| 1787739905 | 21.11° C | 68% | 1015.7 hPa | 0 mm | - | - | - |
| 1787739598 | 21.11° C | 68% | 1015.6 hPa | 0 mm | - | - | - |
| 1787739297 | 20.56° C | 69% | 1015.7 hPa | 0 mm | - | - | - |
| 1787739005 | 20.56° C | 69% | 1015.6 hPa | 0 mm | - | - | - |
| 1787738706 | 20.56° C | 69% | 1015.7 hPa | 0 mm | - | - | - |
| 1787738398 | 20.56° C | 69% | 1015.6 hPa | 0 mm | - | - | - |
| 1787738105 | 20.56° C | 71% | 1015.8 hPa | 0 mm | - | - | - |
| 1787737806 | 20.56° C | 70% | 1015.8 hPa | 0 mm | - | - | - |
| 1787737498 | 20.56° C | 72% | 1015.7 hPa | 0 mm | - | - | - |
| 1787737206 | 20.56° C | 70% | 1015.9 hPa | 0 mm | - | - | - |
| 1787736898 | 20.56° C | 72% | 1015.8 hPa | 0 mm | - | - | - |
| 1787736605 | 20.56° C | 73% | 1015.8 hPa | 0 mm | - | - | - |
| 1787736306 | 20° C | 74% | 1015.8 hPa | 0 mm | - | - | - |
| 1787735998 | 20° C | 73% | 1015.9 hPa | 0 mm | - | - | - |
| 1787735698 | 20° C | 73% | 1016 hPa | 0 mm | - | - | - |
| 1787735397 | 20° C | 71% | 1015.8 hPa | 0 mm | - | - | - |
| 1787735098 | 20° C | 76% | 1015.8 hPa | 0 mm | - | - | - |
| 1787734798 | 20° C | 76% | 1016 hPa | 0 mm | - | - | - |
| 1787734498 | 20° C | 77% | 1015.9 hPa | 0 mm | - | - | - |
| 1787734206 | 20° C | 77% | 1016 hPa | 0 mm | - | - | - |
| 1787733906 | 20° C | 77% | 1015.9 hPa | 0 mm | - | - | - |
| 1787733606 | 20° C | 79% | 1015.9 hPa | 0 mm | - | - | - |
| 1787733298 | 19.44° C | 80% | 1016 hPa | 0 mm | - | - | - |
| 1787732998 | 19.44° C | 81% | 1016 hPa | 0 mm | - | - | - |
* Rain latest hour (hover to see other rain measurements)
** Current wind speed in m/s (hover to see current wind gust speed)